This demonstration page uses our WeatherBlox Daily Observations layout. Learn more.

Left ArrowRight Arrow

47.50024, -111.30081

Hourly Observations for April 3, 2016

Temp ( °F °C ) Dew Point ( °F °C ) Humidity (%) Winds ( mph kmh ) Pressure ( in mb ) Visibility ( mi km ) Precip ( " mm )
12:53 am 00:53 Clear 56 13.3 30 -1.1 37 37 WSW 28 44 29.77 1008 10 16 0.00 0.00
1:53 am 01:53 Clear 48 8.9 31 -0.6 52 52 WSW 13 20 29.85 1011 10 16 0.00 0.00
2:53 am 02:53 Clear 46 7.8 29 -1.7 51 51 WSW 12 19 29.88 1012 10 16 0.00 0.00
3:53 am 03:53 Clear 40 4.4 27 -2.8 60 60 W 12 19 29.90 1013 10 16 0.00 0.00
4:53 am 04:53 Clear 39 3.9 28 -2.2 65 65 W 10 17 29.93 1014 10 16 0.00 0.00
5:53 am 05:53 Partly Cloudy 41 5 29 -1.7 62 62 WSW 12 19 29.96 1014 10 16 0.00 0.00
6:53 am 06:53 Mostly Cloudy 45 7.2 30 -1.1 56 56 SW 13 20 29.96 1015 10 16 0.00 0.00
7:53 am 07:53 Mostly Sunny 46 7.8 31 -0.6 56 56 SW 10 17 29.97 1015 10 16 0.00 0.00
8:53 am 08:53 Cloudy 50 10 31 -0.6 48 48 N 8 13 30.00 1016 10 16 0.00 0.00
9:53 am 09:53 Partly Cloudy 55 12.8 32 0 42 42 Calm 30.00 1016 10 16 0.00 0.00
10:53 am 10:53 Cloudy 55 12.8 32 0 42 42 Calm 30.00 1016 10 16 0.00 0.00
11:53 am 11:53 Sunny 61 16.1 33 0.6 35 35 VRB 6 9 29.98 1015 10 16 0.00 0.00
12:53 pm 12:53 Partly Cloudy 62 16.7 33 0.6 34 34 W 9 15 29.96 1015 10 16 0.00 0.00
1:53 pm 13:53 Mostly Cloudy 61 16.1 32 0 34 34 NW 3 6 29.98 1015 10 16 0.00 0.00
2:53 pm 14:53 Mostly Cloudy 62 16.7 31 -0.6 31 31 WNW 7 11 29.98 1015 10 16 0.00 0.00
3:53 pm 15:53 Mostly Cloudy 67 19.4 30 -1.1 25 25 W 12 19 29.96 1015 10 16 0.00 0.00
4:53 pm 16:53 Mostly Sunny 63 17.2 30 -1.1 29 29 SSW 5 7 29.98 1015 10 16 0.00 0.00
5:53 pm 17:53 Mostly Cloudy 62 16.7 31 -0.6 31 31 NE 6 9 29.97 1015 8 13 0.00 0.00
6:53 pm 18:53 Mostly Cloudy 59 15 32 0 36 36 NE 8 13 29.98 1015 10 16 0.00 0.00
7:53 pm 19:53 Sunny 53 11.7 33 0.6 47 47 E 8 13 29.99 1016 10 16 0.00 0.00
8:53 pm 20:53 Clear 51 10.6 32 0 48 48 ENE 8 13 30.00 1016 10 16 0.00 0.00
9:53 pm 21:53 Clear 45 7.2 32 0 61 61 E 9 15 30.02 1017 10 16 0.00 0.00
10:53 pm 22:53 Clear 46 7.8 32 0 58 58 ESE 8 13 30.01 1016 10 16 0.00 0.00
11:53 pm 23:53 Clear 44 6.7 31 -0.6 60 60 E 5 7 30.00 1016 10 16 0.00 0.00

Powered by AerisWeather